GW6017 Weather Reports


Display with metric or nautical units.
time (UTC)temp
F
wind
direction
speed
MPH
gust
MPH
rain 1hr
in
rain 24hr
in
rain mn
in
humidity
%
barometer
mb
20260506182520 57 113 10.0 14.0 0.00 0.00 0.00 61 1022.2
20260506182019 57 113 10.0 15.0 0.00 0.00 0.00 60 1022.2
20260506181540 57 113 10.0 14.0 0.00 0.00 0.00 61 1022.3
20260506181019 57 113 10.0 15.0 0.00 0.00 0.00 61 1022.3
20260506180519 57 113 9.0 15.0 0.00 0.00 0.00 61 1022.3
20260506180026 57 113 10.0 14.0 0.00 0.00 0.00 60 1022.3
20260506175518 57 113 9.0 14.0 0.00 0.00 0.00 60 1022.4
20260506175019 57 113 10.0 14.0 0.00 0.00 0.00 60 1022.3
20260506174519 57 113 10.0 13.0 0.00 0.00 0.00 59 1022.3
20260506174019 58 113 11.0 16.0 0.00 0.00 0.00 59 1022.3
20260506173518 58 113 10.0 14.0 0.00 0.00 0.00 59 1022.2
20260506173007 58 113 10.0 15.0 0.00 0.00 0.00 59 1022.3
20260506172518 58 90 10.0 14.0 0.00 0.00 0.00 59 1022.2
20260506172019 58 90 9.0 15.0 0.00 0.00 0.00 58 1022.2
20260506171518 58 113 10.0 15.0 0.00 0.00 0.00 58 1022.1
20260506171018 58 113 11.0 16.0 0.00 0.00 0.00 58 1022.1
20260506170519 58 113 10.0 14.0 0.00 0.00 0.00 58 1022.2
20260506170007 58 113 10.0 16.0 0.00 0.00 0.00 58 1022.1
20260506165518 58 113 10.0 15.0 0.00 0.00 0.00 58 1022.1
20260506165039 58 113 10.0 15.0 0.00 0.00 0.00 58 1022.1
20260506164600 58 113 9.0 15.0 0.00 0.00 0.00 58 1022.0
20260506164018 58 113 8.0 13.0 0.00 0.00 0.00 58 1022.1
20260506163518 58 113 8.0 12.0 0.00 0.00 0.00 58 1022.0
20260506163028 58 113 8.0 15.0 0.00 0.00 0.00 58 1022.1
20260506162519 58 113 9.0 13.0 0.00 0.00 0.00 58 1022.1
20260506162018 58 113 9.0 14.0 0.00 0.00 0.00 58 1022.0
20260506161519 58 113 10.0 14.0 0.00 0.00 0.00 58 1022.1
20260506161039 58 113 9.0 14.0 0.00 0.00 0.00 59 1022.1
20260506160519 58 113 8.0 12.0 0.00 0.00 0.00 59 1022.1
20260506160014 58 113 8.0 13.0 0.00 0.00 0.00 59 1022.0
20260506155518 58 113 8.0 15.0 0.00 0.00 0.00 59 1022.0
20260506155038 58 113 8.0 15.0 0.00 0.00 0.00 59 1022.0
20260506154517 58 113 7.0 12.0 0.00 0.00 0.00 58 1021.9
20260506154018 58 113 8.0 12.0 0.00 0.00 0.00 58 1022.0
20260506153518 58 113 7.0 12.0 0.00 0.00 0.00 58 1022.0
20260506153052 58 113 6.0 11.0 0.00 0.00 0.00 58 1022.1
20260506152518 58 113 7.0 13.0 0.00 0.00 0.00 58 1022.1
20260506152017 58 113 6.0 13.0 0.00 0.00 0.00 58 1022.1
20260506151518 58 113 7.0 13.0 0.00 0.00 0.00 57 1022.2
20260506151018 59 113 6.0 12.0 0.00 0.00 0.00 56 1022.1
20260506150517 59 113 7.0 12.0 0.00 0.00 0.00 56 1022.2
20260506150007 59 113 7.0 13.0 0.00 0.00 0.00 56 1022.3
20260506145518 59 113 7.0 12.0 0.00 0.00 0.00 56 1022.3
20260506145020 59 113 7.0 12.0 0.00 0.00 0.00 55 1022.3
20260506144517 59 135 6.0 10.0 0.00 0.00 0.00 55 1022.3
20260506144018 59 135 6.0 11.0 0.00 0.00 0.00 54 1022.4
20260506143538 58 135 5.0 10.0 0.00 0.00 0.00 55 1022.3
20260506143028 58 135 6.0 11.0 0.00 0.00 0.00 54 1022.3
20260506142538 58 135 5.0 9.0 0.00 0.00 0.00 54 1022.2
20260506142017 59 135 6.0 10.0 0.00 0.00 0.00 54 1022.2
20260506141518 59 135 6.0 10.0 0.00 0.00 0.00 54 1022.1
20260506141017 59 135 5.0 9.0 0.00 0.00 0.00 54 1022.1
20260506140538 58 135 5.0 10.0 0.00 0.00 0.00 54 1022.1
20260506140008 58 135 4.0 7.0 0.00 0.00 0.00 55 1022.1
20260506135518 57 135 5.0 8.0 0.00 0.00 0.00 55 1021.9
20260506135017 57 158 5.0 9.0 0.00 0.00 0.00 55 1022.1
20260506134538 57 158 6.0 8.0 0.00 0.00 0.00 55 1022.0
20260506134017 57 158 5.0 9.0 0.00 0.00 0.00 56 1021.9
20260506133538 56 158 3.0 5.0 0.00 0.00 0.00 56 1021.9
20260506133047 57 158 4.0 6.0 0.00 0.00 0.00 55 1021.9
20260506132517 58 158 3.0 5.0 0.00 0.00 0.00 52 1021.8
20260506132017 60 158 2.0 5.0 0.00 0.00 0.00 49 1021.9
20260506131538 62 135 3.0 6.0 0.00 0.00 0.00 47 1021.9
20260506131017 62 135 3.0 6.0 0.00 0.00 0.00 46 1021.8
20260506130517 62 113 4.0 8.0 0.00 0.00 0.00 46 1021.9
20260506130007 62 135 3.0 7.0 0.00 0.00 0.00 46 1021.9
20260506125518 63 113 4.0 7.0 0.00 0.00 0.00 45 1021.7
20260506124517 63 113 5.0 10.0 0.00 0.00 0.00 45 1021.7
20260506124018 63 113 5.0 9.0 0.00 0.00 0.00 45 1021.7
20260506123538 63 113 5.0 10.0 0.00 0.00 0.00 45 1021.7
20260506123008 63 113 6.0 9.0 0.00 0.00 0.00 45 1021.7
20260506122517 63 113 4.0 8.0 0.00 0.00 0.00 45
20260506122019 63 113 5.0 9.0 0.00 0.00 0.00 45
20260506121520 63 113 5.0 10.0 0.00 0.00 0.00 45
20260506121017 63 135 4.0 8.0 0.00 0.00 0.00 45
20260506120517 63 113 5.0 8.0 0.00 0.00 0.00 45
20260506120007 63 113 4.0 9.0 0.00 0.00 0.00 45
20260506115538 63 113 4.0 8.0 0.00 0.00 0.00 45 1021.2
20260506115100 63 113 4.0 7.0 0.00 0.00 0.00 44 1021.1
20260506114538 63 113 4.0 8.0 0.00 0.00 0.00 44 1021.1
20260506114019 64 135 4.0 8.0 0.00 0.00 0.00 44 1021.0
20260506113519 64 113 4.0 9.0 0.00 0.00 0.00 43 1021.0
20260506113011 64 113 4.0 8.0 0.00 0.00 0.00 43 1021.0
20260506112517 64 113 4.0 8.0 0.00 0.00 0.00 43 1020.9
20260506112020 64 113 3.0 7.0 0.00 0.00 0.00 43 1020.8
20260506111519 64 113 4.0 7.0 0.00 0.00 0.00 43 1020.6
20260506111019 64 135 3.0 5.0 0.00 0.00 0.00 43 1020.6
20260506110519 65 113 3.0 7.0 0.00 0.00 0.00 42 1020.4
20260506110028 65 113 4.0 7.0 0.00 0.00 0.00 42 1020.4
20260506105519 65 113 4.0 8.0 0.00 0.00 0.00 42 1020.4
20260506105019 65 113 4.0 8.0 0.00 0.00 0.00 42 1020.4
20260506104519 65 135 4.0 9.0 0.00 0.00 0.00 41 1020.3
20260506104041 66 113 4.0 10.0 0.00 0.00 0.00 41 1020.4
20260506103519 66 135 5.0 9.0 0.00 0.00 0.00 40 1020.3
20260506103010 66 135 6.0 13.0 0.00 0.00 0.00 40 1020.2
20260506102520 67 135 8.0 13.0 0.00 0.00 0.00 39 1020.2
20260506102019 67 135 6.0 12.0 0.00 0.00 0.00 39 1020.2
20260506101519 67 135 6.0 11.0 0.00 0.00 0.00 39 1020.2
20260506101019 67 158 7.0 11.0 0.00 0.00 0.00 38 1020.3
20260506100519 68 135 7.0 12.0 0.00 0.00 0.00 38 1020.3
20260506100016 68 158 8.0 12.0 0.00 0.00 0.00 38 1020.2
20260506095519 68 135 7.0 12.0 0.00 0.00 0.00 37 1020.2
20260506095020 69 135 7.0 12.0 0.00 0.00 0.00 37 1020.2
20260506094539 69 135 5.0 10.0 0.00 0.00 0.00 36 1020.1
20260506094019 70 135 6.0 10.0 0.00 0.00 0.00 36 1020.1
20260506093600 70 135 7.0 12.0 0.00 0.00 0.00 35 1020.0
20260506093010 71 135 5.0 12.0 0.00 0.00 0.00 34 1020.1
20260506092540 71 113 7.0 12.0 0.00 0.00 0.00 33 1020.0
20260506092019 72 113 7.0 13.0 0.00 0.00 0.00 32 1020.0
20260506091540 72 113 5.0 9.0 0.00 0.00 0.00 32 1019.9
20260506091019 72 113 6.0 13.0 0.00 0.00 0.00 32 1019.9
20260506090539 72 113 9.0 18.0 0.00 0.00 0.00 31 1019.8
20260506090007 73 113 9.0 14.0 0.00 0.00 0.00 31 1020.0
20260506085519 73 113 9.0 15.0 0.00 0.00 0.00 31 1019.9
20260506085018 73 113 7.0 14.0 0.00 0.00 0.00 31 1019.9
20260506084519 73 113 10.0 18.0 0.00 0.00 0.00 30 1019.9
20260506084039 73 135 10.0 17.0 0.00 0.00 0.00 30 1019.8
20260506083519 74 135 8.0 13.0 0.00 0.00 0.00 30 1019.8
20260506083007 74 113 9.0 15.0 0.00 0.00 0.00 30 1019.8
20260506082519 74 113 9.0 17.0 0.00 0.00 0.00 29 1019.8
20260506082022 74 113 9.0 18.0 0.00 0.00 0.00 29 1019.8
20260506081519 74 135 8.0 12.0 0.00 0.00 0.00 29 1019.7
20260506081019 74 113 9.0 15.0 0.00 0.00 0.00 29 1019.7
20260506080519 74 113 9.0 14.0 0.00 0.00 0.00 29 1019.7
20260506073519 75 113 8.0 14.0 0.00 0.00 0.00 29 1019.8
20260506073018 75 113 8.0 15.0 0.00 0.00 0.00 29 1019.7
20260506072518 75 90 10.0 16.0 0.00 0.00 0.00 29 1019.7
20260506072018 74 113 8.0 14.0 0.00 0.00 0.00 30 1019.8
20260506071539 75 113 11.0 16.0 0.00 0.00 0.00 30 1019.8
20260506071018 75 113 7.0 13.0 0.00 0.00 0.00 30 1019.7
20260506070519 75 113 8.0 16.0 0.00 0.00 0.00 30 1019.8
20260506062018 74 113 10.0 19.0 0.00 0.00 0.00 31 1019.9
20260506061518 74 113 8.0 15.0 0.00 0.00 0.00 32 1019.9
20260506061018 74 113 8.0 15.0 0.00 0.00 0.00 33 1019.9
20260506060518 74 113 10.0 18.0 0.00 0.00 0.00 32 1020.0
20260506051100 73 113 11.0 17.0 0.00 0.00 0.00 35 1020.5
20260506050518 73 113 11.0 17.0 0.00 0.00 0.00 35 1020.5
20260506045018 72 113 8.0 15.0 0.00 0.00 0.00 37 1020.8
20260506044518 72 113 11.0 17.0 0.00 0.00 0.00 36 1020.8
20260506044018 73 90 11.0 17.0 0.00 0.00 0.00 36 1020.9
20260506043539 72 90 11.0 17.0 0.00 0.00 0.00 36 1020.9
20260506043010 72 113 9.0 19.0 0.00 0.00 0.00 38 1021.1
20260506042518 72 113 10.0 17.0 0.00 0.00 0.00 37 1021.2
20260506042018 72 90 13.0 20.0 0.00 0.00 0.00 37 1021.2
20260506041518 71 113 10.0 17.0 0.00 0.00 0.00 38 1021.1
20260506041039 71 113 11.0 20.0 0.00 0.00 0.00 38 1021.1
20260506040518 72 90 12.0 20.0 0.00 0.00 0.00 38 1021.2
20260506040009 72 90 11.0 17.0 0.00 0.00 0.00 38 1021.4
20260506035518 72 90 11.0 20.0 0.00 0.00 0.00 38 1021.5
20260506035039 71 90 12.0 20.0 0.00 0.00 0.00 39 1021.7
20260506034518 71 90 12.0 18.0 0.00 0.00 0.00 39 1021.8
20260506034018 71 113 12.0 19.0 0.00 0.00 0.00 40 1021.8
20260506033539 71 90 12.0 21.0 0.00 0.00 0.00 39 1021.9
20260506033007 71 90 13.0 18.0 0.00 0.00 0.00 40 1021.9
20260506032518 71 90 12.0 24.0 0.00 0.00 0.00 40 1022.0
20260506032018 71 90 11.0 17.0 0.00 0.00 0.00 41 1021.9
20260506031518 70 90 10.0 18.0 0.00 0.00 0.00 41 1022.2
20260506031039 70 90 9.0 13.0 0.00 0.00 0.00 42 1022.3
20260506030518 70 90 12.0 20.0 0.00 0.00 0.00 41 1022.4
20260506030006 69 90 10.0 18.0 0.00 0.00 0.00 43 1022.5
20260506025520 69 90 12.0 17.0 0.00 0.00 0.00 43 1022.5
20260506025039 69 90 12.0 19.0 0.00 0.00 0.00 43 1022.4
20260506024518 69 90 12.0 17.0 0.00 0.00 0.00 43 1022.4
20260506024018 68 90 12.0 19.0 0.00 0.00 0.00 44 1022.5
20260506023518 68 68 16.0 21.0 0.00 0.00 0.00 44 1022.6
20260506023007 68 90 11.0 16.0 0.00 0.00 0.00 44 1022.6
20260506022620 68 68 14.0 23.0 0.00 0.00 0.00 45 1022.6
20260506022018 68 90 11.0 17.0 0.00 0.00 0.00 46 1022.7
20260506021518 68 90 12.0 16.0 0.00 0.00 0.00 45 1022.8
20260506021018 68 90 12.0 17.0 0.00 0.00 0.00 46 1022.8
20260506020518 67 90 12.0 17.0 0.00 0.00 0.00 46 1022.9
20260506020006 67 90 12.0 19.0 0.00 0.00 0.00 47 1022.8
20260506015518 67 68 13.0 20.0 0.00 0.00 0.00 47 1022.8
20260506015039 67 68 14.0 23.0 0.00 0.00 0.00 47 1022.9
20260506014518 66 68 15.0 22.0 0.00 0.00 0.00 48 1022.9
20260506014017 66 68 15.0 21.0 0.00 0.00 0.00 48 1022.9
20260506013518 66 90 12.0 19.0 0.00 0.00 0.00 49 1022.9
20260506013007 65 90 11.0 17.0 0.00 0.00 0.00 49 1022.9
20260506012517 65 90 13.0 17.0 0.00 0.00 0.00 50 1023.2
20260506012038 65 90 11.0 17.0 0.00 0.00 0.00 50 1023.2
20260506011518 64 90 12.0 20.0 0.00 0.00 0.00 51 1023.1
20260506011017 64 90 11.0 17.0 0.00 0.00 0.00 52 1023.1
20260506010517 63 90 10.0 17.0 0.00 0.00 0.00 54 1023.1
20260506010008 62 90 8.0 13.0 0.00 0.00 0.00 55 1023.0
20260506005600 61 90 8.0 13.0 0.00 0.00 0.00 57 1023.0
20260506005018 61 90 8.0 12.0 0.00 0.00 0.00 58 1022.9
20260506004518 61 90 8.0 11.0 0.00 0.00 0.00 58 1022.8
20260506004018 60 90 9.0 14.0 0.00 0.00 0.00 59 1022.9
20260506003517 60 90 9.0 15.0 0.00 0.00 0.00 59 1022.8
20260506003007 59 90 8.0 12.0 0.00 0.00 0.00 59 1022.6
20260506002539 59 90 10.0 15.0 0.00 0.00 0.00 60 1022.7
20260506002038 59 90 9.0 13.0 0.00 0.00 0.00 60 1022.7
20260506001538 58 90 10.0 15.0 0.00 0.00 0.00 61 1022.6
20260506001017 58 90 11.0 16.0 0.00 0.00 0.00 61 1022.6
20260506000518 58 68 11.0 16.0 0.00 0.00 0.00 61 1022.7
20260506000006 0 0.0 0.0 0.00 0.00 0.00
20260505233518 56 68 12.0 17.0 0.00 0.00 0.00 63 1022.0
20260505233013 55 68 11.0 15.0 0.00 0.00 0.00 64 1021.9
20260505232518 55 68 11.0 15.0 0.00 0.00 0.00 65 1021.9
20260505232038 54 68 9.0 12.0 0.00 0.00 0.00 65 1022.0
20260505231518 54 68 10.0 14.0 0.00 0.00 0.00 65 1021.9
20260505231018 54 68 9.0 12.0 0.00 0.00 0.00 66 1021.7
20260505230539 54 68 9.0 12.0 0.00 0.00 0.00 66 1021.7
20260505230007 53 68 8.0 11.0 0.00 0.00 0.00 67 1021.6
20260505225518 53 68 8.0 11.0 0.00 0.00 0.00 67 1021.5
20260505225018 52 68 9.0 12.0 0.00 0.00 0.00 67 1021.5
20260505224518 53 68 9.0 11.0 0.00 0.00 0.00 67 1021.4
20260505224018 53 68 7.0 10.0 0.00 0.00 0.00 66 1021.6
20260505223559 53 68 7.0 9.0 0.00 0.00 0.00 65 1021.5
20260505223028 53 68 8.0 11.0 0.00 0.00 0.00 65 1021.5
20260505222518 54 90 8.0 11.0 0.00 0.00 0.00 65 1021.5
20260505222018 54 90 8.0 11.0 0.00 0.00 0.00 64 1021.4
20260505221518 54 90 8.0 12.0 0.00 0.00 0.00 64 1021.3
20260505221018 53 68 9.0 12.0 0.00 0.00 0.00 65 1021.2
20260505220518 53 90 8.0 11.0 0.00 0.00 0.00 65 1021.2
20260505220006 53 90 8.0 11.0 0.00 0.00 0.00 65 1021.2
20260505215519 53 90 7.0 11.0 0.00 0.00 0.00 65 1021.1
20260505215018 53 90 7.0 10.0 0.00 0.00 0.00 64 1021.1
20260505214517 53 90 7.0 9.0 0.00 0.00 0.00 64 1021.1
20260505214038 53 90 6.0 9.0 0.00 0.00 0.00 64 1020.8
20260505213518 53 90 5.0 7.0 0.00 0.00 0.00 64 1020.7
20260505213009 53 90 6.0 11.0 0.00 0.00 0.00 64 1020.7
20260505212517 53 90 7.0 10.0 0.00 0.00 0.00 64 1020.8
20260505212018 53 113 5.0 7.0 0.00 0.00 0.00 64 1020.8
20260505211517 53 113 5.0 8.0 0.00 0.00 0.00 64 1020.7
20260505211018 53 113 5.0 8.0 0.00 0.00 0.00 64 1020.7
20260505210518 53 90 6.0 8.0 0.00 0.00 0.00 64 1020.7
20260505210006 53 90 4.0 7.0 0.00 0.00 0.00 64 1020.7
20260505205538 53 90 4.0 7.0 0.00 0.00 0.00 64
20260505205038 53 90 4.0 6.0 0.00 0.00 0.00 64
20260505204538 53 90 3.0 6.0 0.00 0.00 0.00 64
20260505204017 53 90 3.0 6.0 0.00 0.00 0.00 62
20260505203518 54 90 4.0 7.0 0.00 0.00 0.00 61
20260505203008 54 113 3.0 7.0 0.00 0.00 0.00 61
20260505202518 54 90 4.0 8.0 0.00 0.00 0.00 61
20260505202018 54 113 3.0 6.0 0.00 0.00 0.00 60
20260505201517 55 90 5.0 7.0 0.00 0.00 0.00 60
20260505201038 55 90 5.0 7.0 0.00 0.00 0.00 60
20260505200518 55 90 5.0 8.0 0.00 0.00 0.00 60
20260505200006 55 90 4.0 8.0 0.00 0.00 0.00 59
20260505195518 55 90 4.0 8.0 0.00 0.00 0.00 58
20260505195018 56 90 6.0 9.0 0.00 0.00 0.00 58
20260505194517 56 90 6.0 9.0 0.00 0.00 0.00 58
20260505194018 56 90 6.0 9.0 0.00 0.00 0.00 57
20260505193517 56 90 7.0 11.0 0.00 0.00 0.00 56
20260505193009 57 90 7.0 9.0 0.00 0.00 0.00 56
20260505192517 57 90 7.0 10.0 0.00 0.00 0.00 56
20260505192038 57 90 8.0 11.0 0.00 0.00 0.00 56
20260505191517 56 90 7.0 10.0 0.00 0.00 0.00 57
20260505191017 56 90 7.0 9.0 0.00 0.00 0.00 57
20260505190517 56 90 5.0 8.0 0.00 0.00 0.00 57
20260505190006 56 90 6.0 9.0 0.00 0.00 0.00 56
20260505185517 57 90 7.0 10.0 0.00 0.00 0.00 56
20260505185038 57 90 5.0 8.0 0.00 0.00 0.00 56
20260505184519 57 90 6.0 9.0 0.00 0.00 0.00 56
20260505184017 56 90 5.0 10.0 0.00 0.00 0.00 56
20260505183517 56 90 7.0 9.0 0.00 0.00 0.00 57
20260505183005 56 90 7.0 10.0 0.00 0.00 0.00 57